User: anonymous
Location: Sperry Observatory
(40.6664°N, 74.3236°W)
Time: 02:19:26
(UTC-04:00)
Language:

JAS-2 - Orbit

View from above orbital plane
View from above orbital plane
View from above satellite
View from above satellite

Ground track
Ground track

The orbit data is extracted from the following two-line orbital elements,

1 24278U 96046B   14265.09020806 -.00000003  00000-0  31121-4 0  4790
2 24278 098.5150 265.5761 0351068 046.3658 355.8577 13.53029626893771
Epoch (UTC): 22 September 2014 02:09:53
Eccentricity: 0.0351068
inclination: 98.5150°
perigee height: 800 km
apogee height: 1322 km
right ascension of ascending node: 265.5761°
argument of perigee: 46.3658°
revolutions per day: 13.53029626
mean anomaly at epoch: 355.8577°
orbit number at epoch: 89377

The dashed part of the orbit path shows where the satellite is in the earth's shadow,  

DLR